Location: El Bakhil
(32.7726°N, 5.5387°W)
Time: 04:53:52
(UTC+00:00)

Hubble Space Telescope - Pass Details

Date: 03 March 2021
Orbit: 535 x 539 km, 28.5° (Epoch: 12 April)

Event Time Altitude Azimuth Distance (km) Brightness Sun altitude
Rises 20:42:50 0° 242° (WSW) 2,662 5.0 -30.4°
Reaches altitude 10° 20:45:14 10° 232° (SW) 1,774 3.8 -30.9°
Enters shadow 20:45:38 12° 229° (SW) 1,637 3.6 -31.0°
